317  
FPUS82 KCHS 201827  
OPUCHS  
 
TEST   
..KCHS/KSAV GATEWAY OBSERVATIONS
 
TEST  
NATIONAL WEATHER SERVICE CHARLESTON SC  
200 PM EDT SAT APR 20 2019  
 
NOTE: "FAIR" INDICATES FEW OR NO CLOUDS BELOW 12,000 FEET WITH NO  
SIGNIFICANT WEATHER AND/OR OBSTRUCTIONS TO VISIBILITY.  
 
SCZ050-WAZ558-NCZ071-TXZ119-213-PAZ071-DCZ001-FLZ074-172-MI076-  
NYZ176-178-MAZ016-IL014-TNZ027-NJZ106-GAZ044-MD014-201900-  
   
..GATEWAY OBSERVATIONS FOR CHARLESTON INTERNATIONAL
 
 
 
CITY SKY/WX TMP DP RH WIND PRES REMARKS  
CHAS AIRPORT PTSUNNY 64 41 42 SW15G29 29.82S  
6HR MIN TEMP: 54; 6HR MAX TEMP: 66;  
 
SEATTLE CLOUDY 53 42 66 NE7 30.05R  
6HR MIN TEMP: 47; 6HR MAX TEMP: 53;  
 
CHARLOTTE CLOUDY 55 41 59 SW14G26 29.74S  
6HR MIN TEMP: 49; 6HR MAX TEMP: 56; 6HR PCP: TRACE;  
 
DALLAS DFW SUNNY 74 44 34 S9 30.05F  
6HR MIN TEMP: 49; 6HR MAX TEMP: 74;  
 
DALLAS LOVE SUNNY 74 40 29 SW8 30.06F  
6HR MIN TEMP: 48; 6HR MAX TEMP: 75;  
 
PHILLADELPHIA PTSUNNY 71 61 70 S14G22 29.69F  
6HR MIN TEMP: 66; 6HR MAX TEMP: 71; 6HR PCP: 0.05;  
 
WASH NATIONAL FAIR 71 50 47 S15 29.65S  
6HR MIN TEMP: 67; 6HR MAX TEMP: 73;  
 
BALTIMORE PTSUNNY 72 46 39 S14G24 29.64R  
6HR MIN TEMP: 64; 6HR MAX TEMP: 73; 6HR PCP: TRACE;  
 
MIAMI PTSUNNY 79 53 40 W6 30.00F  
6HR MIN TEMP: 71; 6HR MAX TEMP: 80;  
 
DETROIT RAIN 41 37 86 N13 29.68R FOG  
6HR MIN TEMP: 40; 6HR MAX TEMP: 41; 6HR PCP: 0.63;  
 
NEWARK CLOUDY 64 61 90 SE12 29.73F  
6HR MIN TEMP: 60; 6HR MAX TEMP: 66; 6HR PCP: 0.16;  
 
LAGUARDIA CLOUDY 61 59 93 S18G30 29.75F FOG  
6HR MIN TEMP: 59; 6HR MAX TEMP: 63; 6HR PCP: 0.35;  
 
J F K CLOUDY 59 59 100 S25 29.77S FOG  
6HR MIN TEMP: 57; 6HR MAX TEMP: 62; 6HR PCP: 0.17;  
 
BOSTON LOGAN CLOUDY 73 64 73 S29G44 29.88F  
6HR MIN TEMP: 66; 6HR MAX TEMP: 73; 6HR PCP: 0.10;  
 
FT. LAUDERDALE PTSUNNY 79 54 41 W13G23 29.98F  
6HR MIN TEMP: 70; 6HR MAX TEMP: 79;  
 
CHICAGO O'HARE FAIR 61 12 14 N22 29.83F  
6HR MIN TEMP: 39; 6HR MAX TEMP: 61;  
 
CHICAGO MIDWAY FAIR 59 9 13 N25G37 29.82F  
6HR MIN TEMP: 43; 6HR MAX TEMP: 59;  
 
HOUSTON BUSH SUNNY 74 42 31 VRB3 30.12F  
6HR MIN TEMP: 49; 6HR MAX TEMP: 74;  
 
HOUSTON HOBBY FAIR 74 39 28 VRB5 30.12F  
6HR MIN TEMP: 51; 6HR MAX TEMP: 74;  
 
NASHVILLE CLOUDY 45 40 82 NW12G20 29.80R  
6HR MIN TEMP: 42; 6HR MAX TEMP: 46; 6HR PCP: 0.05;  
 
ATLANTA LGT RAIN 49 44 83 W12 29.80R  
6HR MIN TEMP: 44; 6HR MAX TEMP: 50; 6HR PCP: 0.02;  
 

 
 
GAZ044-118-TXZ119-213-NCZ071-DCZ001-MDZ014-506-PAZ021-071-NJZ106-  
NYZ176-178-MAZ106-OHZ011-021-055-MIZ076-KYZ091-ILZ014-INZ047-  
MNZ060-ONZ431-201900-  
   
..GATEWAY OBSERVATIONS FOR SAVANNAH INTERNATIONAL
 
 
 
CITY SKY/WX TMP DP RH WIND PRES REMARKS  
SAVANNAH ARPT PTSUNNY 65 41 41 W18G26 29.86S  
6HR MIN TEMP: 52; 6HR MAX TEMP: 66;  
 
ATLANTA LGT RAIN 49 44 83 W12 29.80R  
6HR MIN TEMP: 44; 6HR MAX TEMP: 50; 6HR PCP: 0.02;  
 
CHARLOTTE CLOUDY 55 41 59 SW14G26 29.74S  
6HR MIN TEMP: 49; 6HR MAX TEMP: 56; 6HR PCP: TRACE;  
 
DALLAS DFW SUNNY 74 44 34 S9 30.05F  
6HR MIN TEMP: 49; 6HR MAX TEMP: 74;  
 
HOUSTON BUSH SUNNY 74 42 31 VRB3 30.12F  
6HR MIN TEMP: 49; 6HR MAX TEMP: 74;  
 
WASH NATIONAL FAIR 71 50 47 S15 29.65S  
6HR MIN TEMP: 67; 6HR MAX TEMP: 73;  
 
WASH DULLES PTSUNNY 70 48 45 SW15G25 29.63S  
6HR MIN TEMP: 66; 6HR MAX TEMP: 71;  
 
BALTIMORE PTSUNNY 72 46 39 S14G24 29.64R  
6HR MIN TEMP: 64; 6HR MAX TEMP: 73; 6HR PCP: TRACE;  
 
PHILADELPHIA PTSUNNY 71 61 70 S14G22 29.69F  
6HR MIN TEMP: 66; 6HR MAX TEMP: 71; 6HR PCP: 0.05;  
 
NEWARK CLOUDY 64 61 90 SE12 29.73F  
6HR MIN TEMP: 60; 6HR MAX TEMP: 66; 6HR PCP: 0.16;  
 
LAGUARDIA CLOUDY 61 59 93 S18G30 29.75F FOG  
6HR MIN TEMP: 59; 6HR MAX TEMP: 63; 6HR PCP: 0.35;  
 
J F K CLOUDY 59 59 100 S25 29.77S FOG  
6HR MIN TEMP: 57; 6HR MAX TEMP: 62; 6HR PCP: 0.17;  
 
BOSTON CLOUDY 73 64 73 S29G44 29.88F  
6HR MIN TEMP: 66; 6HR MAX TEMP: 73; 6HR PCP: 0.10;  
 
PITTSBURG FAIR 63 46 54 SW12G20 29.55R  
6HR MIN TEMP: 51; 6HR MAX TEMP: 64; 6HR PCP: 0.03;  
 
AKRON PTSUNNY 56 45 66 SW10 29.59S  
6HR MIN TEMP: 43; 6HR MAX TEMP: 56;  
 
CLEVELAND CLOUDY 51 45 79 SW9 29.62R  
6HR MIN TEMP: 42; 6HR MAX TEMP: 52; 6HR PCP: 0.04;  
 
CINCINNATI LGT RAIN 46 43 89 NW13 29.64R FOG  
6HR MIN TEMP: 39; 6HR MAX TEMP: 46; 6HR PCP: 0.01;  
 
COLUMBUS N/A N/A N/A N/A MISG N/A  
DETROIT RAIN 41 37 86 N13 29.68R FOG  
6HR MIN TEMP: 40; 6HR MAX TEMP: 41; 6HR PCP: 0.63;  
 
CHICAGO O'HARE FAIR 61 12 14 N22 29.83F  
6HR MIN TEMP: 39; 6HR MAX TEMP: 61;  
 
MINNEAPOLIS FAIR 69 35 28 SW10G23 29.78F  
6HR MIN TEMP: 46; 6HR MAX TEMP: 69;  
 
INDIANAPOLIS LGT RAIN 43 39 86 N14 29.73R  
6HR MIN TEMP: 41; 6HR MAX TEMP: 43; 6HR PCP: 0.20;  
 
TORONTO CANADA LGT RAIN 45 43 93 NE12 29.65F  
 

 
 
 
CLICK HERE TO GO TO PREVIOUS BULLETINS.

The Nexlab SC Page
The Nexlab GA Page Main Text Page